^^
B2 Weather Station Historical Data
Daily Summary for April 9, 2018 Units:  English    Metric   Both
Daily Weekly Monthly Yearly Custom
  High: Low: Average:
Temperature: 39.8 °F 30.5 °F 35.6 °F
Dew Point: 34.0 °F 29.0 °F 31.5 °F
Humidity: 95% 70% 85%
Wind Speed: 9.2mph 0.0mph 2.4mph
Wind Gust: 9.2mph - -
Wind- - SSW
Pressure: 30.30 in 30.08 in -
Precipitation: 0.08 in    
Historical Graphs
 
 
Tabular Data for April 9, 2018
Time Temperature Dew Point Pressure Wind Wind Speed Wind Gust Humidity Rainfall Rate (Hourly) solar
00:03 31.5 °F 29.4 °F 30.10 in Calm     92% 0.00 in 0.0 W/m2
00:08 31.5 °F 29.4 °F 30.10 in Calm     92% 0.00 in 0.0 W/m2
00:14 31.5 °F 29.4 °F 30.10 in Calm     92% 0.00 in 0.0 W/m2
00:19 31.5 °F 29.4 °F 30.10 in Calm     92% 0.00 in 0.0 W/m2
00:24 31.5 °F 29.7 °F 30.10 in Calm     93% 0.00 in 0.0 W/m2
00:29 31.5 °F 29.7 °F 30.10 in Calm     93% 0.00 in 0.0 W/m2
00:34 31.5 °F 29.7 °F 30.10 in Calm     93% 0.00 in 0.0 W/m2
00:39 31.5 °F 29.7 °F 30.11 in Calm     93% 0.01 in 0.0 W/m2
00:44 31.5 °F 29.7 °F 30.11 in Calm     93% 0.02 in 0.0 W/m2
00:49 31.5 °F 29.7 °F 30.11 in Calm     93% 0.03 in 0.0 W/m2
00:54 31.5 °F 29.7 °F 30.11 in Calm     93% 0.04 in 0.0 W/m2
00:59 31.5 °F 29.7 °F 30.11 in Calm     93% 0.05 in 0.0 W/m2
01:04 31.5 °F 29.7 °F 30.11 in Calm     93% 0.05 in 0.0 W/m2
01:09 31.5 °F 29.7 °F 30.11 in Calm     93% 0.06 in 0.0 W/m2
01:14 31.6 °F 29.8 °F 30.10 in Calm     93% 0.06 in 0.0 W/m2
01:19 31.5 °F 29.7 °F 30.10 in Calm     93% 0.06 in 0.0 W/m2
01:24 31.5 °F 29.7 °F 30.10 in Calm     93% 0.06 in 0.0 W/m2
01:29 31.5 °F 29.7 °F 30.10 in Calm     93% 0.06 in 0.0 W/m2
01:34 31.5 °F 29.7 °F 30.10 in Calm     93% 0.06 in 0.0 W/m2
01:39 31.5 °F 29.7 °F 30.10 in Calm     93% 0.05 in 0.0 W/m2
01:44 31.5 °F 29.7 °F 30.10 in Calm     93% 0.04 in 0.0 W/m2
01:49 31.5 °F 30.0 °F 30.10 in Calm     94% 0.03 in 0.0 W/m2
01:54 31.4 °F 29.9 °F 30.10 in Calm     94% 0.02 in 0.0 W/m2
01:59 31.4 °F 29.9 °F 30.10 in Calm     94% 0.01 in 0.0 W/m2
02:04 31.3 °F 29.8 °F 30.10 in Calm     94% 0.01 in 0.0 W/m2
02:09 31.2 °F 29.7 °F 30.09 in Calm     94% 0.00 in 0.0 W/m2
02:14 31.2 °F 29.7 °F 30.09 in Calm     94% 0.00 in 0.0 W/m2
02:19 31.2 °F 29.7 °F 30.09 in Calm     94% 0.01 in 0.0 W/m2
02:24 31.1 °F 29.6 °F 30.09 in Calm     94% 0.01 in 0.0 W/m2
02:29 31.1 °F 29.6 °F 30.09 in Calm     94% 0.01 in 0.0 W/m2
02:34 31.1 °F 29.6 °F 30.09 in Calm     94% 0.01 in 0.0 W/m2
02:39 31.1 °F 29.6 °F 30.09 in Calm     94% 0.01 in 0.0 W/m2
02:44 31.0 °F 29.5 °F 30.09 in Calm     94% 0.01 in 0.0 W/m2
02:49 31.1 °F 29.6 °F 30.09 in Calm     94% 0.01 in 0.0 W/m2
02:54 31.1 °F 29.6 °F 30.08 in East 2.3 mph 2.3 mph 94% 0.01 in 0.0 W/m2
02:59 31.0 °F 29.5 °F 30.08 in Calm     94% 0.01 in 0.0 W/m2
03:04 31.0 °F 29.5 °F 30.08 in East 5.8 mph 5.8 mph 94% 0.01 in 0.0 W/m2
03:09 30.9 °F 29.4 °F 30.08 in ESE 3.5 mph 3.5 mph 94% 0.01 in 0.0 W/m2
03:14 30.8 °F 29.3 °F 30.08 in Calm     94% 0.01 in 0.0 W/m2
03:19 30.8 °F 29.3 °F 30.08 in Calm     94% 0.00 in 0.0 W/m2
03:24 30.8 °F 29.3 °F 30.08 in East 2.3 mph   94% 0.00 in 0.0 W/m2
03:29 30.7 °F 29.2 °F 30.08 in ESE 1.2 mph 1.2 mph 94% 0.00 in 0.0 W/m2
03:34 30.7 °F 29.2 °F 30.08 in ESE 3.5 mph 3.5 mph 94% 0.00 in 0.0 W/m2
03:39 30.7 °F 29.2 °F 30.08 in Calm     94% 0.00 in 0.0 W/m2
03:44 30.7 °F 29.2 °F 30.08 in Calm     94% 0.00 in 0.0 W/m2
03:49 30.6 °F 29.1 °F 30.08 in Calm     94% 0.00 in 0.0 W/m2
03:54 30.6 °F 29.1 °F 30.08 in Calm     94% 0.00 in 0.0 W/m2
03:59 30.6 °F 29.1 °F 30.08 in Calm     94% 0.00 in 0.0 W/m2
04:04 30.6 °F 29.1 °F 30.08 in Calm     94% 0.00 in 0.0 W/m2
04:09 30.6 °F 29.1 °F 30.08 in Calm     94% 0.00 in 0.0 W/m2
04:14 30.6 °F 29.1 °F 30.08 in Calm     94% 0.00 in 0.0 W/m2
04:19 30.6 °F 29.1 °F 30.08 in Calm     94% 0.00 in 0.0 W/m2
04:24 30.6 °F 29.1 °F 30.08 in Calm     94% 0.00 in 0.0 W/m2
04:29 30.6 °F 29.1 °F 30.08 in Calm     94% 0.00 in 0.0 W/m2
04:34 30.6 °F 29.1 °F 30.08 in East 2.3 mph   94% 0.00 in 0.0 W/m2
04:39 30.6 °F 29.1 °F 30.08 in East 2.3 mph 2.3 mph 94% 0.00 in 0.0 W/m2
04:44 30.6 °F 29.1 °F 30.08 in Calm     94% 0.00 in 0.0 W/m2
04:49 30.6 °F 29.1 °F 30.08 in Calm     94% 0.00 in 0.0 W/m2
04:54 30.6 °F 29.1 °F 30.09 in Calm     94% 0.00 in 0.0 W/m2
04:59 30.6 °F 29.1 °F 30.09 in Calm     94% 0.00 in 0.0 W/m2
05:04 30.6 °F 29.1 °F 30.09 in East 3.0 mph 3.0 mph 94% 0.00 in 0.0 W/m2
05:09 30.6 °F 29.1 °F 30.09 in East 1.0 mph 1.3 mph 94% 0.00 in 0.0 W/m2
05:14 30.6 °F 29.1 °F 30.08 in East 3.5 mph   94% 0.00 in 0.0 W/m2
05:19 30.6 °F 29.1 °F 30.08 in Calm     94% 0.00 in 0.0 W/m2
05:24 30.6 °F 29.1 °F 30.09 in Calm     94% 0.00 in 0.0 W/m2
05:29 30.6 °F 29.1 °F 30.09 in Calm     94% 0.00 in 0.0 W/m2
05:34 30.6 °F 29.1 °F 30.09 in Calm     94% 0.00 in 0.0 W/m2
05:39 30.6 °F 29.1 °F 30.09 in Calm     94% 0.00 in 0.0 W/m2
05:44 30.6 °F 29.1 °F 30.09 in Calm     94% 0.00 in 0.0 W/m2
05:49 30.6 °F 29.1 °F 30.09 in Calm     94% 0.00 in 0.0 W/m2
05:54 30.6 °F 29.1 °F 30.09 in Calm     94% 0.00 in 0.0 W/m2
05:59 30.5 °F 29.0 °F 30.10 in Calm     94% 0.00 in 0.0 W/m2
06:04 30.6 °F 29.1 °F 30.10 in Calm     94% 0.00 in 0.0 W/m2
06:09 30.6 °F 29.1 °F 30.10 in East 2.3 mph 2.3 mph 94% 0.00 in 0.0 W/m2
06:14 30.6 °F 29.1 °F 30.11 in Calm     94% 0.00 in 0.0 W/m2
06:19 30.6 °F 29.1 °F 30.11 in Calm     94% 0.00 in 0.0 W/m2
06:25 30.6 °F 29.1 °F 30.11 in Calm     94% 0.00 in 0.0 W/m2
06:30 30.6 °F 29.1 °F 30.11 in Calm     94% 0.00 in 0.0 W/m2
06:35 30.6 °F 29.1 °F 30.11 in Calm     94% 0.00 in 0.0 W/m2
06:40 30.6 °F 29.1 °F 30.11 in Calm     94% 0.01 in 0.0 W/m2
06:45 30.6 °F 29.1 °F 30.12 in Calm     94% 0.01 in 0.0 W/m2
06:50 30.6 °F 29.1 °F 30.12 in Calm     94% 0.01 in 5.0 W/m2
06:55 30.6 °F 29.1 °F 30.12 in Calm     94% 0.01 in 7.0 W/m2
07:00 30.6 °F 29.1 °F 30.12 in Calm     94% 0.01 in 9.0 W/m2
07:05 30.7 °F 29.2 °F 30.12 in Calm     94% 0.01 in 11.0 W/m2
07:10 30.6 °F 29.1 °F 30.13 in Calm     94% 0.01 in 12.0 W/m2
07:15 30.7 °F 29.2 °F 30.13 in Calm     94% 0.01 in 16.0 W/m2
07:20 30.7 °F 29.4 °F 30.13 in Calm     95% 0.01 in 19.0 W/m2
07:25 30.8 °F 29.5 °F 30.13 in Calm     95% 0.01 in 19.0 W/m2
07:30 30.9 °F 29.6 °F 30.13 in Calm     95% 0.01 in 23.0 W/m2
07:35 31.0 °F 29.7 °F 30.14 in Calm     95% 0.01 in 25.0 W/m2
07:40 31.1 °F 29.8 °F 30.14 in Calm     95% 0.00 in 26.0 W/m2
07:45 31.1 °F 29.8 °F 30.14 in Calm     95% 0.00 in 28.0 W/m2
07:50 31.1 °F 29.8 °F 30.14 in Calm     95% 0.00 in 32.0 W/m2
07:55 31.2 °F 29.9 °F 30.14 in Calm     95% 0.00 in 37.0 W/m2
08:00 31.3 °F 30.0 °F 30.14 in Calm     95% 0.00 in 39.0 W/m2
08:05 31.5 °F 30.2 °F 30.15 in Calm     95% 0.00 in 42.0 W/m2
08:10 31.6 °F 30.3 °F 30.15 in Calm     95% 0.00 in 47.0 W/m2
08:15 31.7 °F 30.4 °F 30.15 in Calm     95% 0.00 in 51.0 W/m2
08:20 31.7 °F 30.4 °F 30.15 in Calm     95% 0.00 in 51.0 W/m2
08:25 31.8 °F 30.5 °F 30.15 in Calm     95% 0.00 in 60.0 W/m2
08:30 31.8 °F 30.5 °F 30.15 in Calm     95% 0.00 in 67.0 W/m2
08:35 31.9 °F 30.6 °F 30.15 in Calm     95% 0.00 in 74.0 W/m2
08:40 31.9 °F 30.4 °F 30.16 in Calm     94% 0.00 in 86.0 W/m2
08:45 31.9 °F 30.4 °F 30.16 in Calm     94% 0.00 in 97.0 W/m2
08:50 32.0 °F 30.7 °F 30.16 in Calm     95% 0.00 in 111.0 W/m2
08:55 32.0 °F 30.7 °F 30.16 in Calm     95% 0.00 in 128.0 W/m2
09:00 32.1 °F 30.8 °F 30.16 in Calm     95% 0.00 in 123.0 W/m2
09:05 32.1 °F 30.8 °F 30.16 in Calm     95% 0.00 in 128.0 W/m2
09:06 32.1 °F 30.8 °F 30.16 in Calm     95% 0.00 in 128.0 W/m2
09:11 32.1 °F 30.6 °F 30.16 in Calm     94% 0.00 in 132.0 W/m2
09:16 32.2 °F 30.7 °F 30.16 in Calm     94% 0.00 in 151.0 W/m2
09:21 32.1 °F 30.6 °F 30.17 in Calm     94% 0.00 in 165.0 W/m2
09:26 32.3 °F 30.8 °F 30.17 in Calm     94% 0.00 in 163.0 W/m2
09:31 32.3 °F 30.8 °F 30.17 in Calm     94% 0.00 in 183.0 W/m2
09:36 32.4 °F 30.9 °F 30.17 in ESE 2.3 mph 2.3 mph 94% 0.00 in 176.0 W/m2
09:41 32.4 °F 30.9 °F 30.17 in Calm     94% 0.00 in 185.0 W/m2
09:46 32.5 °F 31.0 °F 30.17 in Calm     94% 0.00 in 209.0 W/m2
09:51 32.7 °F 31.2 °F 30.17 in Calm     94% 0.00 in 218.0 W/m2
09:56 32.7 °F 31.2 °F 30.17 in Calm     94% 0.00 in 237.0 W/m2
10:01 32.8 °F 31.3 °F 30.17 in East 3.5 mph 3.5 mph 94% 0.00 in 251.0 W/m2
10:06 33.0 °F 31.5 °F 30.17 in Calm     94% 0.00 in 204.0 W/m2
10:11 33.0 °F 31.5 °F 30.17 in Calm     94% 0.00 in 209.0 W/m2
10:16 33.0 °F 31.5 °F 30.17 in East 2.0 mph   94% 0.00 in 209.0 W/m2
10:21 33.0 °F 31.5 °F 30.17 in East 3.5 mph 3.5 mph 94% 0.00 in 223.0 W/m2
10:26 33.1 °F 31.6 °F 30.17 in Calm     94% 0.00 in 200.0 W/m2
10:31 33.1 °F 31.3 °F 30.17 in Calm     93% 0.00 in 202.0 W/m2
10:36 33.3 °F 31.5 °F 30.18 in Calm     93% 0.00 in 185.0 W/m2
10:41 33.4 °F 31.6 °F 30.18 in Calm     93% 0.00 in 197.0 W/m2
10:46 33.6 °F 31.8 °F 30.18 in Calm     93% 0.00 in 188.0 W/m2
10:51 33.7 °F 31.9 °F 30.18 in Calm     93% 0.00 in 174.0 W/m2
10:56 33.8 °F 32.0 °F 30.18 in SSE 1.2 mph 1.2 mph 93% 0.00 in 176.0 W/m2
11:01 34.1 °F 32.0 °F 30.17 in Calm     92% 0.00 in 218.0 W/m2
11:06 34.2 °F 32.1 °F 30.18 in Calm     92% 0.00 in 206.0 W/m2
11:11 34.2 °F 32.1 °F 30.17 in Calm     92% 0.00 in 258.0 W/m2
11:16 34.5 °F 32.4 °F 30.17 in Calm     92% 0.00 in 279.0 W/m2
11:21 34.7 °F 32.3 °F 30.17 in Calm     91% 0.00 in 292.0 W/m2
11:26 35.0 °F 32.6 °F 30.17 in Calm     91% 0.00 in 292.0 W/m2
11:31 35.6 °F 33.2 °F 30.17 in Calm     91% 0.00 in 297.0 W/m2
11:36 35.8 °F 33.2 °F 30.17 in Calm     90% 0.00 in 330.0 W/m2
11:41 35.8 °F 32.9 °F 30.17 in Calm     89% 0.00 in 322.0 W/m2
11:46 36.1 °F 33.2 °F 30.17 in Calm     89% 0.00 in 287.0 W/m2
11:51 36.4 °F 33.2 °F 30.18 in Calm     88% 0.00 in 236.0 W/m2
11:56 36.3 °F 32.5 °F 30.17 in Calm     86% 0.00 in 216.0 W/m2
12:01 36.4 °F 32.6 °F 30.18 in Calm     86% 0.00 in 239.0 W/m2
12:06 36.5 °F 32.4 °F 30.18 in NW 2.3 mph 2.3 mph 85% 0.00 in 253.0 W/m2
12:09 36.3 °F 32.2 °F 30.18 in Calm     85% 0.00 in 274.0 W/m2
12:10 36.2 °F 32.1 °F 30.18 in Calm     85% 0.00 in 274.0 W/m2
12:13 36.2 °F 32.4 °F 30.18 in Calm     86% 0.00 in 290.0 W/m2
12:14 36.3 °F 32.5 °F 30.18 in Calm     86% 0.00 in 301.0 W/m2
12:15 36.3 °F 32.2 °F 30.18 in Calm     85% 0.00 in 311.0 W/m2
12:17 36.4 °F 32.3 °F 30.17 in Calm     85% 0.00 in 334.0 W/m2
12:20 36.7 °F 32.9 °F 30.17 in Calm     86% 0.00 in 378.0 W/m2
12:21 36.7 °F 32.9 °F 30.17 in Calm     86% 0.00 in 378.0 W/m2
12:24 37.1 °F 33.3 °F 30.17 in NW 2.3 mph   86% 0.00 in 499.0 W/m2
12:25 37.1 °F 33.3 °F 30.17 in NW 3.5 mph 3.5 mph 86% 0.00 in 499.0 W/m2
12:28 37.5 °F 33.7 °F 30.17 in NE 3.5 mph 3.5 mph 86% 0.00 in 606.0 W/m2
12:29 37.6 °F 33.8 °F 30.17 in NE 3.5 mph 3.5 mph 86% 0.00 in 385.0 W/m2
12:30 37.7 °F 33.9 °F 30.17 in North 6.9 mph 6.9 mph 86% 0.00 in 367.0 W/m2
12:31 37.8 °F 34.0 °F 30.17 in North 5.8 mph 5.8 mph 86% 0.00 in 359.0 W/m2
12:32 37.8 °F 33.4 °F 30.17 in North 5.8 mph 5.8 mph 84% 0.00 in 371.0 W/m2
12:33 37.8 °F 33.4 °F 30.17 in NNW 4.6 mph 4.6 mph 84% 0.00 in 388.0 W/m2
12:34 37.8 °F 33.4 °F 30.17 in NNW 4.0 mph 4.0 mph 84% 0.00 in 403.0 W/m2
12:35 37.8 °F 33.4 °F 30.17 in NNW 4.6 mph 4.6 mph 84% 0.00 in 415.0 W/m2
12:37 37.7 °F 33.0 °F 30.17 in North 3.5 mph 3.5 mph 83% 0.00 in 385.0 W/m2
12:39 37.7 °F 33.0 °F 30.17 in North 5.8 mph 5.8 mph 83% 0.00 in 462.0 W/m2
12:42 37.9 °F 32.9 °F 30.17 in NNE 5.8 mph 5.8 mph 82% 0.00 in 420.0 W/m2
12:44 38.0 °F 33.3 °F 30.17 in North 5.8 mph 5.8 mph 83% 0.00 in 329.0 W/m2
12:45 38.0 °F 33.0 °F 30.17 in North 5.8 mph 5.8 mph 82% 0.00 in 334.0 W/m2
12:46 38.1 °F 33.1 °F 30.17 in NNE 3.5 mph 3.5 mph 82% 0.00 in 334.0 W/m2
12:47 38.1 °F 33.1 °F 30.17 in NNE 2.3 mph 2.3 mph 82% 0.00 in 396.0 W/m2
12:48 38.1 °F 32.8 °F 30.17 in NNE 2.3 mph   81% 0.00 in 425.0 W/m2
12:49 38.2 °F 32.9 °F 30.17 in Calm     81% 0.00 in 438.0 W/m2
12:50 38.2 °F 32.9 °F 30.17 in Calm     81% 0.00 in 462.0 W/m2
12:51 38.3 °F 33.0 °F 30.17 in NNE 6.0 mph 6.0 mph 81% 0.00 in 462.0 W/m2
12:52 38.4 °F 33.4 °F 30.17 in NNW 6.9 mph 6.9 mph 82% 0.00 in 413.0 W/m2
12:53 38.5 °F 33.5 °F 30.17 in NNW 6.9 mph 6.9 mph 82% 0.00 in 425.0 W/m2
12:57 38.5 °F 32.6 °F 30.17 in North 4.6 mph 4.6 mph 79% 0.00 in 374.0 W/m2
12:58 38.6 °F 33.6 °F 30.17 in North 3.5 mph 3.5 mph 82% 0.00 in 341.0 W/m2
12:59 38.6 °F 33.6 °F 30.17 in North 5.0 mph 5.0 mph 82% 0.00 in 294.0 W/m2
13:00 38.6 °F 33.6 °F 30.17 in North 6.9 mph 6.9 mph 82% 0.00 in 253.0 W/m2
13:01 38.6 °F 33.6 °F 30.17 in North 5.8 mph 5.8 mph 82% 0.00 in 227.0 W/m2
13:02 38.6 °F 33.3 °F 30.17 in North 5.8 mph 5.8 mph 81% 0.00 in 211.0 W/m2
13:03 38.4 °F 32.8 °F 30.17 in North 6.9 mph 6.9 mph 80% 0.00 in 190.0 W/m2
13:04 38.3 °F 32.7 °F 30.17 in North 8.1 mph 8.1 mph 80% 0.00 in 181.0 W/m2
13:05 38.2 °F 32.6 °F 30.17 in North 8.1 mph 8.1 mph 80% 0.00 in 174.0 W/m2
13:06 38.1 °F 32.5 °F 30.17 in North 6.0 mph 6.0 mph 80% 0.00 in 171.0 W/m2
13:07 38.0 °F 32.4 °F 30.17 in North 5.8 mph 5.8 mph 80% 0.00 in 172.0 W/m2
13:08 37.9 °F 32.3 °F 30.17 in North 5.8 mph 5.8 mph 80% 0.00 in 188.0 W/m2
13:09 37.8 °F 32.2 °F 30.17 in NNW 6.0 mph 6.0 mph 80% 0.00 in 204.0 W/m2
13:10 37.7 °F 32.1 °F 30.17 in NNW 5.8 mph 5.8 mph 80% 0.00 in 227.0 W/m2
13:11 37.7 °F 32.1 °F 30.17 in NNW 3.5 mph 3.5 mph 80% 0.00 in 255.0 W/m2
13:13 37.6 °F 32.0 °F 30.17 in NNW 2.3 mph   80% 0.00 in 315.0 W/m2
13:14 37.7 °F 32.4 °F 30.17 in NNW 3.5 mph 3.5 mph 81% 0.00 in 345.0 W/m2
13:15 37.7 °F 32.4 °F 30.17 in NNW 3.5 mph 3.5 mph 81% 0.00 in 385.0 W/m2
13:16 37.8 °F 32.2 °F 30.17 in NNW 5.0 mph 5.0 mph 80% 0.00 in 385.0 W/m2
13:19 37.9 °F 32.3 °F 30.17 in Calm     80% 0.00 in 919.0 W/m2
13:21 38.0 °F 32.1 °F 30.17 in Calm     79% 0.00 in 919.0 W/m2
13:22 38.1 °F 32.2 °F 30.17 in Calm     79% 0.00 in 309.0 W/m2
13:23 38.1 °F 32.2 °F 30.17 in Calm     79% 0.00 in 264.0 W/m2
13:24 38.1 °F 32.2 °F 30.17 in Calm     79% 0.00 in 230.0 W/m2
13:25 38.2 °F 32.3 °F 30.17 in Calm     79% 0.00 in 185.0 W/m2
13:26 38.2 °F 32.3 °F 30.17 in Calm     79% 0.00 in 185.0 W/m2
13:27 38.2 °F 32.3 °F 30.17 in Calm     79% 0.00 in 155.0 W/m2
13:28 38.3 °F 32.0 °F 30.17 in Calm     78% 0.00 in 144.0 W/m2
13:29 38.3 °F 32.0 °F 30.17 in Calm     78% 0.00 in 135.0 W/m2
13:30 38.3 °F 32.0 °F 30.17 in Calm     78% 0.00 in 130.0 W/m2
13:31 38.3 °F 31.7 °F 30.17 in Calm     77% 0.00 in 123.0 W/m2
13:32 38.3 °F 31.7 °F 30.17 in Calm     77% 0.00 in 120.0 W/m2
13:33 38.3 °F 31.7 °F 30.17 in NW 3.0 mph 3.0 mph 77% 0.00 in 118.0 W/m2
13:35 38.3 °F 32.0 °F 30.17 in North 3.5 mph 3.5 mph 78% 0.00 in 121.0 W/m2
13:36 38.3 °F 32.0 °F 30.17 in North 3.5 mph 3.5 mph 78% 0.00 in 125.0 W/m2
13:38 38.2 °F 31.6 °F 30.17 in North 1.2 mph   77% 0.00 in 142.0 W/m2
13:39 38.2 °F 31.9 °F 30.17 in Calm     78% 0.00 in 151.0 W/m2
13:40 38.2 °F 31.9 °F 30.17 in Calm     78% 0.00 in 158.0 W/m2
13:42 38.2 °F 31.3 °F 30.17 in Calm     76% 0.00 in 169.0 W/m2
13:43 38.1 °F 31.2 °F 30.17 in Calm     76% 0.00 in 179.0 W/m2
13:46 38.0 °F 31.1 °F 30.17 in Calm     76% 0.00 in 190.0 W/m2
13:47 38.1 °F 31.5 °F 30.17 in Calm     77% 0.00 in 195.0 W/m2
13:48 38.1 °F 31.8 °F 30.17 in NW 4.6 mph 4.6 mph 78% 0.00 in 197.0 W/m2
13:49 38.2 °F 31.9 °F 30.17 in NW 4.6 mph 4.6 mph 78% 0.00 in 199.0 W/m2
13:51 38.3 °F 32.4 °F 30.17 in NW 3.5 mph 3.5 mph 79% 0.00 in 195.0 W/m2
13:52 38.2 °F 31.9 °F 30.17 in Calm     78% 0.00 in 192.0 W/m2
13:55 38.3 °F 32.0 °F 30.17 in NW 4.6 mph 4.6 mph 78% 0.00 in 195.0 W/m2
13:56 38.4 °F 32.1 °F 30.17 in NW 4.6 mph 4.6 mph 78% 0.00 in 200.0 W/m2
13:59 38.3 °F 31.7 °F 30.17 in NW 4.0 mph 4.0 mph 77% 0.00 in 211.0 W/m2
14:00 38.4 °F 31.8 °F 30.17 in NW 3.5 mph 3.5 mph 77% 0.00 in 199.0 W/m2
14:01 38.3 °F 31.7 °F 30.17 in NW 3.5 mph 3.5 mph 77% 0.00 in 199.0 W/m2
14:02 38.3 °F 31.7 °F 30.17 in NNW 3.5 mph 3.5 mph 77% 0.00 in 193.0 W/m2
14:03 38.3 °F 31.7 °F 30.17 in NNW 3.5 mph 3.5 mph 77% 0.00 in 188.0 W/m2
14:04 38.3 °F 31.7 °F 30.17 in North 3.5 mph 3.5 mph 77% 0.00 in 185.0 W/m2
14:06 38.3 °F 32.4 °F 30.17 in NE 6.9 mph 6.9 mph 79% 0.00 in 167.0 W/m2
14:07 38.4 °F 32.5 °F 30.17 in NE 5.8 mph 5.8 mph 79% 0.00 in 153.0 W/m2
14:08 38.3 °F 32.4 °F 30.17 in NNE 5.8 mph 5.8 mph 79% 0.00 in 146.0 W/m2
14:09 38.3 °F 32.0 °F 30.17 in NNE 5.8 mph 5.8 mph 78% 0.00 in 141.0 W/m2
14:10 38.3 °F 32.0 °F 30.17 in NE 3.5 mph   78% 0.00 in 132.0 W/m2
14:11 38.2 °F 31.9 °F 30.17 in NE 4.0 mph 4.0 mph 78% 0.00 in 118.0 W/m2
14:12 38.2 °F 32.3 °F 30.17 in NE 6.0 mph 6.0 mph 79% 0.00 in 97.0 W/m2
14:13 38.2 °F 32.3 °F 30.17 in NNE 5.8 mph 5.8 mph 79% 0.00 in 88.0 W/m2
14:14 38.2 °F 32.3 °F 30.17 in North 6.0 mph 6.0 mph 79% 0.00 in 83.0 W/m2
14:15 38.1 °F 32.2 °F 30.18 in NNE 5.8 mph 5.8 mph 79% 0.00 in 77.0 W/m2
14:16 38.1 °F 32.2 °F 30.18 in North 4.6 mph 4.6 mph 79% 0.00 in 77.0 W/m2
14:17 38.0 °F 32.1 °F 30.18 in NNE 4.6 mph 4.6 mph 79% 0.00 in 77.0 W/m2
14:19 37.9 °F 31.7 °F 30.18 in NNE 5.8 mph 5.8 mph 78% 0.00 in 76.0 W/m2
14:20 37.8 °F 31.9 °F 30.18 in North 3.5 mph 3.5 mph 79% 0.00 in 74.0 W/m2
14:24 37.7 °F 31.5 °F 30.18 in NNW 3.5 mph 3.5 mph 78% 0.00 in 70.0 W/m2
14:25 37.7 °F 31.8 °F 30.18 in NNW 5.0 mph 5.0 mph 79% 0.00 in 69.0 W/m2
14:26 37.7 °F 31.8 °F 30.18 in NNW 4.6 mph 4.6 mph 79% 0.00 in 67.0 W/m2
14:27 37.7 °F 31.8 °F 30.18 in NNW 4.6 mph 4.6 mph 79% 0.00 in 67.0 W/m2
14:28 37.7 °F 31.8 °F 30.18 in NNW 3.5 mph 3.5 mph 79% 0.00 in 67.0 W/m2
14:29 37.7 °F 31.8 °F 30.18 in NNW 4.0 mph 4.0 mph 79% 0.00 in 67.0 W/m2
14:30 37.6 °F 31.4 °F 30.18 in NNW 3.5 mph 3.5 mph 78% 0.00 in 69.0 W/m2
14:32 37.5 °F 31.3 °F 30.18 in NW 3.5 mph 3.5 mph 78% 0.00 in 74.0 W/m2
14:33 37.5 °F 31.3 °F 30.18 in Calm     78% 0.00 in 74.0 W/m2
14:34 37.5 °F 31.3 °F 30.18 in Calm     78% 0.00 in 77.0 W/m2
14:36 37.5 °F 31.3 °F 30.18 in NW 4.0 mph 4.0 mph 78% 0.00 in 79.0 W/m2
14:37 37.5 °F 31.3 °F 30.18 in NW 3.5 mph 3.5 mph 78% 0.00 in 81.0 W/m2
14:38 37.5 °F 31.3 °F 30.18 in NW 4.6 mph 4.6 mph 78% 0.00 in 86.0 W/m2
14:39 37.5 °F 30.9 °F 30.18 in NW 2.3 mph 2.3 mph 77% 0.00 in 90.0 W/m2
14:40 37.5 °F 30.9 °F 30.18 in NW 2.3 mph   77% 0.00 in 95.0 W/m2
14:41 37.5 °F 31.3 °F 30.18 in NNW 3.5 mph 3.5 mph 78% 0.00 in 98.0 W/m2
14:46 37.6 °F 31.7 °F 30.18 in NNW 3.5 mph 3.5 mph 79% 0.00 in 128.0 W/m2
14:47 37.6 °F 31.4 °F 30.18 in NNW 2.3 mph 2.3 mph 78% 0.00 in 135.0 W/m2
14:48 37.7 °F 31.5 °F 30.18 in NNW 3.5 mph 3.5 mph 78% 0.00 in 156.0 W/m2
14:49 37.7 °F 31.5 °F 30.18 in North 3.5 mph 3.5 mph 78% 0.00 in 172.0 W/m2
14:50 37.7 °F 31.5 °F 30.18 in North 3.5 mph 3.5 mph 78% 0.00 in 211.0 W/m2
14:51 37.7 °F 31.5 °F 30.18 in North 3.5 mph 3.5 mph 78% 0.00 in 211.0 W/m2
14:52 37.8 °F 31.6 °F 30.18 in Calm     78% 0.00 in 236.0 W/m2
14:53 37.9 °F 31.7 °F 30.18 in Calm     78% 0.00 in 236.0 W/m2
14:54 37.9 °F 31.7 °F 30.18 in North 1.0 mph 1.0 mph 78% 0.00 in 243.0 W/m2
14:55 38.0 °F 31.7 °F 30.18 in NE 3.5 mph 3.5 mph 78% 0.00 in 253.0 W/m2
14:56 38.1 °F 31.8 °F 30.18 in NNE 3.5 mph 3.5 mph 78% 0.00 in 260.0 W/m2
14:57 38.1 °F 31.8 °F 30.18 in NNE 3.5 mph 3.5 mph 78% 0.00 in 272.0 W/m2
14:58 38.2 °F 31.6 °F 30.18 in Calm     77% 0.00 in 327.0 W/m2
14:59 38.3 °F 32.0 °F 30.18 in Calm     78% 0.00 in 327.0 W/m2
15:00 38.4 °F 32.1 °F 30.18 in North 4.0 mph 4.0 mph 78% 0.00 in 420.0 W/m2
15:01 38.6 °F 32.3 °F 30.18 in NNW 4.0 mph 4.0 mph 78% 0.00 in 473.0 W/m2
15:02 38.8 °F 32.5 °F 30.18 in NNW 3.5 mph 3.5 mph 78% 0.00 in 429.0 W/m2
15:04 38.9 °F 32.3 °F 30.19 in North 4.0 mph 4.0 mph 77% 0.00 in 411.0 W/m2
15:06 39.1 °F 32.8 °F 30.19 in North 3.5 mph 3.5 mph 78% 0.00 in 411.0 W/m2
15:07 39.3 °F 32.7 °F 30.19 in North 3.5 mph 3.5 mph 77% 0.00 in 432.0 W/m2
15:08 39.4 °F 32.8 °F 30.19 in North 3.5 mph 3.5 mph 77% 0.00 in 432.0 W/m2
15:09 39.5 °F 32.6 °F 30.19 in NNE 3.5 mph 3.5 mph 76% 0.00 in 406.0 W/m2
15:10 39.5 °F 32.6 °F 30.19 in NE 4.0 mph 4.0 mph 76% 0.00 in 399.0 W/m2
15:11 39.6 °F 32.7 °F 30.19 in NE 3.5 mph 3.5 mph 76% 0.00 in 390.0 W/m2
15:12 39.6 °F 32.7 °F 30.19 in NE 2.3 mph 2.3 mph 76% 0.00 in 390.0 W/m2
15:13 39.6 °F 32.7 °F 30.19 in NE 2.3 mph 2.3 mph 76% 0.00 in 390.0 W/m2
15:14 39.6 °F 32.7 °F 30.19 in NE 2.3 mph 2.3 mph 76% 0.00 in 390.0 W/m2
15:16 39.8 °F 32.8 °F 30.19 in NNW 3.5 mph 3.5 mph 76% 0.00 in 390.0 W/m2
15:17 39.7 °F 32.4 °F 30.19 in North 3.5 mph 3.5 mph 75% 0.00 in 258.0 W/m2
15:18 39.7 °F 32.4 °F 30.19 in North 3.5 mph 3.5 mph 75% 0.00 in 246.0 W/m2
15:19 39.7 °F 32.1 °F 30.19 in North 3.5 mph 3.5 mph 74% 0.00 in 234.0 W/m2
15:20 39.7 °F 32.1 °F 30.19 in North 3.5 mph   74% 0.00 in 218.0 W/m2
15:21 39.7 °F 32.8 °F 30.19 in North 5.8 mph 5.8 mph 76% 0.00 in 207.0 W/m2
15:22 39.7 °F 32.8 °F 30.19 in North 5.8 mph 5.8 mph 76% 0.00 in 202.0 W/m2
15:23 39.7 °F 32.4 °F 30.19 in NNE 6.9 mph 6.9 mph 75% 0.00 in 207.0 W/m2
15:24 39.6 °F 32.3 °F 30.19 in NNE 6.9 mph 6.9 mph 75% 0.00 in 213.0 W/m2
15:25 39.6 °F 32.7 °F 30.18 in NNE 3.5 mph 3.5 mph 76% 0.00 in 220.0 W/m2
15:26 39.6 °F 32.7 °F 30.18 in North 3.5 mph 3.5 mph 76% 0.00 in 220.0 W/m2
15:27 39.6 °F 32.7 °F 30.19 in NNW 3.5 mph 3.5 mph 76% 0.00 in 223.0 W/m2
15:28 39.6 °F 32.7 °F 30.19 in NNW 5.0 mph 5.0 mph 76% 0.00 in 225.0 W/m2
15:29 39.5 °F 32.6 °F 30.19 in North 5.0 mph 5.0 mph 76% 0.00 in 232.0 W/m2
15:30 39.5 °F 32.6 °F 30.18 in North 5.8 mph 5.8 mph 76% 0.00 in 236.0 W/m2
15:31 39.5 °F 32.6 °F 30.18 in North 6.9 mph 6.9 mph 76% 0.00 in 243.0 W/m2
15:32 39.4 °F 32.1 °F 30.18 in North 4.6 mph 4.6 mph 75% 0.00 in 243.0 W/m2
15:33 39.4 °F 32.5 °F 30.18 in NNW 4.6 mph 4.6 mph 76% 0.00 in 246.0 W/m2
15:34 39.3 °F 32.4 °F 30.18 in North 3.5 mph 3.5 mph 76% 0.00 in 255.0 W/m2
15:38 39.3 °F 32.4 °F 30.18 in NNW 5.8 mph 5.8 mph 76% 0.00 in 243.0 W/m2
15:39 39.3 °F 32.4 °F 30.18 in NNW 5.8 mph 5.8 mph 76% 0.00 in 239.0 W/m2
15:40 39.2 °F 31.3 °F 30.18 in NNW 3.0 mph 3.0 mph 73% 0.00 in 229.0 W/m2
15:41 39.2 °F 31.6 °F 30.18 in NNW 5.0 mph 5.0 mph 74% 0.00 in 223.0 W/m2
15:42 39.2 °F 31.6 °F 30.18 in NNW 4.0 mph 4.0 mph 74% 0.00 in 220.0 W/m2
15:43 39.2 °F 31.3 °F 30.18 in NNW 3.5 mph 3.5 mph 73% 0.00 in 214.0 W/m2
15:45 39.1 °F 30.8 °F 30.19 in NNW 3.5 mph 3.5 mph 72% 0.00 in 204.0 W/m2
15:47 39.1 °F 31.2 °F 30.19 in NNW 3.5 mph 3.5 mph 73% 0.00 in 197.0 W/m2
15:48 39.1 °F 30.8 °F 30.19 in North 3.5 mph 3.5 mph 72% 0.00 in 195.0 W/m2
15:49 39.1 °F 30.8 °F 30.19 in NNW 5.0 mph 5.0 mph 72% 0.00 in 195.0 W/m2
15:50 39.1 °F 30.8 °F 30.19 in NW 4.6 mph 4.6 mph 72% 0.00 in 193.0 W/m2
15:51 39.1 °F 30.1 °F 30.19 in NW 4.6 mph 4.6 mph 70% 0.00 in 193.0 W/m2
15:54 39.2 °F 31.3 °F 30.19 in NNW 3.5 mph 3.5 mph 73% 0.00 in 190.0 W/m2
15:55 39.2 °F 31.3 °F 30.19 in NNW 4.6 mph 4.6 mph 73% 0.00 in 188.0 W/m2
15:56 39.3 °F 31.0 °F 30.19 in NW 4.6 mph 4.6 mph 72% 0.00 in 185.0 W/m2
15:58 39.2 °F 30.6 °F 30.19 in NW 5.8 mph 5.8 mph 71% 0.00 in 176.0 W/m2
15:59 39.2 °F 30.6 °F 30.19 in NNW 4.6 mph 4.6 mph 71% 0.00 in 172.0 W/m2
16:01 39.1 °F 30.8 °F 30.19 in NNW 6.0 mph 6.0 mph 72% 0.00 in 171.0 W/m2
16:02 39.1 °F 30.8 °F 30.19 in NNW 6.0 mph 6.0 mph 72% 0.00 in 169.0 W/m2
16:03 39.1 °F 31.5 °F 30.19 in NNW 6.0 mph 6.0 mph 74% 0.00 in 169.0 W/m2
16:04 39.1 °F 31.5 °F 30.19 in North 5.8 mph 5.8 mph 74% 0.00 in 167.0 W/m2
16:05 39.1 °F 31.5 °F 30.19 in NNW 6.9 mph 6.9 mph 74% 0.00 in 167.0 W/m2
16:06 39.0 °F 31.4 °F 30.19 in NW 6.9 mph 6.9 mph 74% 0.00 in 163.0 W/m2
16:09 38.9 °F 31.6 °F 30.19 in NNW 4.6 mph 4.6 mph 75% 0.00 in 155.0 W/m2
16:10 38.8 °F 31.6 °F 30.19 in WNW 6.0 mph 6.0 mph 75% 0.00 in 146.0 W/m2
16:11 38.8 °F 31.9 °F 30.19 in NW 5.8 mph 5.8 mph 76% 0.00 in 146.0 W/m2
16:12 38.9 °F 32.0 °F 30.19 in NNW 4.0 mph 4.0 mph 76% 0.00 in 127.0 W/m2
16:13 38.8 °F 31.9 °F 30.19 in NNW 4.6 mph 4.6 mph 76% 0.00 in 120.0 W/m2
16:14 38.8 °F 31.9 °F 30.19 in NNW 4.6 mph 4.6 mph 76% 0.00 in 120.0 W/m2
16:15 38.8 °F 31.9 °F 30.19 in WNW 5.0 mph 5.0 mph 76% 0.00 in 114.0 W/m2
16:16 38.8 °F 31.2 °F 30.19 in NNW 4.6 mph 4.6 mph 74% 0.00 in 104.0 W/m2
16:17 38.8 °F 31.2 °F 30.19 in NNW 6.9 mph 6.9 mph 74% 0.00 in 98.0 W/m2
16:18 38.8 °F 31.6 °F 30.19 in NW 6.9 mph 6.9 mph 75% 0.00 in 93.0 W/m2
16:19 38.8 °F 31.6 °F 30.20 in North 5.0 mph 5.0 mph 75% 0.00 in 88.0 W/m2
16:20 38.7 °F 31.1 °F 30.20 in NNW 5.0 mph 5.0 mph 74% 0.00 in 86.0 W/m2
16:22 38.7 °F 31.1 °F 30.20 in NW 8.0 mph 8.0 mph 74% 0.00 in 79.0 W/m2
16:23 38.6 °F 31.0 °F 30.20 in NW 8.1 mph 8.1 mph 74% 0.00 in 77.0 W/m2
16:24 38.6 °F 31.0 °F 30.20 in NW 8.1 mph 8.1 mph 74% 0.00 in 76.0 W/m2
16:25 38.6 °F 31.0 °F 30.20 in NNW 5.0 mph 5.0 mph 74% 0.00 in 72.0 W/m2
16:26 38.6 °F 31.0 °F 30.20 in NW 4.6 mph 4.6 mph 74% 0.00 in 72.0 W/m2
16:27 38.6 °F 31.0 °F 30.20 in NW 5.8 mph 5.8 mph 74% 0.00 in 70.0 W/m2
16:28 38.6 °F 31.0 °F 30.20 in NW 3.5 mph 3.5 mph 74% 0.00 in 72.0 W/m2
16:29 38.6 °F 31.0 °F 30.20 in NW 4.6 mph 4.6 mph 74% 0.00 in 74.0 W/m2
16:31 38.6 °F 31.4 °F 30.20 in NW 4.0 mph 4.0 mph 75% 0.00 in 79.0 W/m2
16:32 38.6 °F 31.4 °F 30.20 in NW 3.5 mph 3.5 mph 75% 0.00 in 81.0 W/m2
16:33 38.6 °F 31.7 °F 30.20 in NNW 6.0 mph 6.0 mph 76% 0.00 in 84.0 W/m2
16:34 38.6 °F 31.4 °F 30.20 in NNW 7.0 mph 7.0 mph 75% 0.00 in 84.0 W/m2
16:35 38.6 °F 31.4 °F 30.20 in NNW 8.1 mph 8.1 mph 75% 0.00 in 86.0 W/m2
16:36 38.6 °F 31.4 °F 30.20 in NW 9.2 mph 9.2 mph 75% 0.00 in 86.0 W/m2
16:38 38.5 °F 31.3 °F 30.20 in North 7.0 mph 7.0 mph 75% 0.00 in 84.0 W/m2
16:39 38.5 °F 31.3 °F 30.20 in NW 7.0 mph 7.0 mph 75% 0.00 in 84.0 W/m2
16:42 38.3 °F 31.1 °F 30.20 in NNW 6.9 mph 6.9 mph 75% 0.00 in 97.0 W/m2
16:43 38.3 °F 31.1 °F 30.20 in NW 6.9 mph 6.9 mph 75% 0.00 in 97.0 W/m2
16:45 38.3 °F 31.4 °F 30.20 in NW 5.8 mph 5.8 mph 76% 0.00 in 100.0 W/m2
16:46 38.3 °F 31.4 °F 30.20 in NW 5.8 mph 5.8 mph 76% 0.00 in 100.0 W/m2
16:47 38.3 °F 31.4 °F 30.20 in NNW 5.8 mph 5.8 mph 76% 0.00 in 102.0 W/m2
16:48 38.4 °F 31.5 °F 30.20 in NW 5.8 mph 5.8 mph 76% 0.00 in 104.0 W/m2
16:49 38.3 °F 31.1 °F 30.20 in NW 5.0 mph 5.0 mph 75% 0.00 in 105.0 W/m2
16:50 38.3 °F 31.1 °F 30.20 in NNW 6.9 mph 6.9 mph 75% 0.00 in 111.0 W/m2
16:51 38.4 °F 31.5 °F 30.20 in NNW 6.9 mph 6.9 mph 76% 0.00 in 111.0 W/m2
16:52 38.4 °F 31.5 °F 30.20 in NNW 6.9 mph 6.9 mph 76% 0.00 in 114.0 W/m2
16:53 38.4 °F 31.5 °F 30.20 in NNW 6.9 mph 6.9 mph 76% 0.00 in 120.0 W/m2
16:54 38.4 °F 31.8 °F 30.20 in NNW 8.1 mph 8.1 mph 77% 0.00 in 125.0 W/m2
16:56 38.4 °F 32.5 °F 30.20 in North 6.9 mph 6.9 mph 79% 0.00 in 130.0 W/m2
16:57 38.4 °F 32.5 °F 30.21 in North 8.1 mph 8.1 mph 79% 0.00 in 135.0 W/m2
16:58 38.3 °F 32.4 °F 30.21 in NNE 9.2 mph 9.2 mph 79% 0.00 in 139.0 W/m2
16:59 38.4 °F 32.5 °F 30.20 in NNW 8.1 mph 8.1 mph 79% 0.00 in 139.0 W/m2
17:00 38.3 °F 32.7 °F 30.21 in North 6.9 mph 6.9 mph 80% 0.00 in 139.0 W/m2
17:01 38.4 °F 32.8 °F 30.21 in North 6.9 mph 6.9 mph 80% 0.00 in 141.0 W/m2
17:03 38.3 °F 32.7 °F 30.21 in North 8.1 mph 8.1 mph 80% 0.00 in 137.0 W/m2
17:05 38.3 °F 32.7 °F 30.21 in North 9.2 mph 9.2 mph 80% 0.00 in 125.0 W/m2
17:06 38.3 °F 32.7 °F 30.21 in North 9.2 mph 9.2 mph 80% 0.00 in 118.0 W/m2
17:07 38.2 °F 32.6 °F 30.21 in NNE 9.2 mph 9.2 mph 80% 0.00 in 114.0 W/m2
17:11 38.0 °F 32.4 °F 30.21 in NNE 6.9 mph 6.9 mph 80% 0.00 in 97.0 W/m2
17:12 38.0 °F 32.7 °F 30.21 in North 6.9 mph 6.9 mph 81% 0.00 in 91.0 W/m2
17:13 38.0 °F 32.7 °F 30.21 in North 5.8 mph 5.8 mph 81% 0.00 in 91.0 W/m2
17:14 38.0 °F 32.7 °F 30.21 in NNE 6.0 mph 6.0 mph 81% 0.00 in 90.0 W/m2
17:16 37.9 °F 32.6 °F 30.21 in North 6.0 mph 6.0 mph 81% 0.00 in 86.0 W/m2
17:17 37.9 °F 32.6 °F 30.21 in NNE 6.9 mph 6.9 mph 81% 0.00 in 84.0 W/m2
17:18 37.8 °F 32.5 °F 30.21 in NNE 5.8 mph 5.8 mph 81% 0.00 in 84.0 W/m2
17:19 37.9 °F 32.6 °F 30.21 in North 6.9 mph 6.9 mph 81% 0.00 in 84.0 W/m2
17:23 37.7 °F 32.4 °F 30.21 in North 6.9 mph 6.9 mph 81% 0.00 in 98.0 W/m2
17:24 37.7 °F 32.4 °F 30.21 in NNE 9.0 mph 9.0 mph 81% 0.00 in 105.0 W/m2
17:25 37.7 °F 32.4 °F 30.21 in North 9.2 mph 9.2 mph 81% 0.00 in 107.0 W/m2
17:27 37.7 °F 32.4 °F 30.21 in NNE 6.9 mph 6.9 mph 81% 0.00 in 107.0 W/m2
17:28 37.7 °F 32.4 °F 30.21 in NNE 5.8 mph 5.8 mph 81% 0.00 in 107.0 W/m2
17:31 37.7 °F 32.7 °F 30.21 in NNE 6.9 mph 6.9 mph 82% 0.00 in 113.0 W/m2
17:33 37.7 °F 32.7 °F 30.21 in North 5.8 mph 5.8 mph 82% 0.00 in 107.0 W/m2
17:34 37.7 °F 32.7 °F 30.22 in North 5.8 mph 5.8 mph 82% 0.00 in 105.0 W/m2
17:35 37.8 °F 32.8 °F 30.22 in North 5.8 mph 5.8 mph 82% 0.00 in 104.0 W/m2
17:36 37.8 °F 32.8 °F 30.22 in NNE 6.0 mph 6.0 mph 82% 0.00 in 105.0 W/m2
17:37 37.8 °F 32.8 °F 30.22 in North 6.0 mph 6.0 mph 82% 0.00 in 105.0 W/m2
17:38 37.7 °F 32.4 °F 30.22 in North 6.9 mph 6.9 mph 81% 0.00 in 100.0 W/m2
17:39 37.7 °F 32.4 °F 30.22 in North 5.8 mph 5.8 mph 81% 0.00 in 98.0 W/m2
17:40 37.8 °F 32.5 °F 30.22 in North 6.9 mph 6.9 mph 81% 0.00 in 98.0 W/m2
17:41 37.8 °F 32.5 °F 30.22 in North 5.8 mph 5.8 mph 81% 0.00 in 97.0 W/m2
17:42 37.8 °F 32.8 °F 30.22 in North 6.9 mph 6.9 mph 82% 0.00 in 95.0 W/m2
17:43 37.8 °F 32.8 °F 30.22 in North 6.9 mph 6.9 mph 82% 0.00 in 91.0 W/m2
17:45 37.8 °F 32.8 °F 30.22 in NNE 5.8 mph 5.8 mph 82% 0.00 in 88.0 W/m2
17:46 37.8 °F 32.8 °F 30.22 in NNW 5.0 mph 5.0 mph 82% 0.00 in 84.0 W/m2
17:48 37.7 °F 32.4 °F 30.22 in North 5.8 mph 5.8 mph 81% 0.00 in 84.0 W/m2
17:49 37.7 °F 32.4 °F 30.22 in North 5.8 mph 5.8 mph 81% 0.00 in 84.0 W/m2
17:50 37.7 °F 32.4 °F 30.22 in NNW 5.8 mph 5.8 mph 81% 0.00 in 83.0 W/m2
17:51 37.7 °F 32.4 °F 30.22 in NNW 5.8 mph 5.8 mph 81% 0.00 in 81.0 W/m2
17:52 37.6 °F 32.3 °F 30.22 in NNW 5.8 mph 5.8 mph 81% 0.00 in 81.0 W/m2
17:53 37.6 °F 32.3 °F 30.22 in NNW 6.9 mph 6.9 mph 81% 0.00 in 77.0 W/m2
17:54 37.6 °F 32.3 °F 30.22 in North 6.9 mph 6.9 mph 81% 0.00 in 77.0 W/m2
17:56 37.5 °F 32.2 °F 30.22 in North 5.8 mph 5.8 mph 81% 0.00 in 76.0 W/m2
17:57 37.4 °F 32.1 °F 30.22 in North 4.6 mph 4.6 mph 81% 0.00 in 74.0 W/m2
17:58 37.4 °F 31.8 °F 30.22 in North 5.0 mph 5.0 mph 80% 0.00 in 74.0 W/m2
17:59 37.4 °F 31.8 °F 30.22 in North 5.8 mph 5.8 mph 80% 0.00 in 74.0 W/m2
18:00 37.4 °F 32.1 °F 30.22 in NNE 3.5 mph 3.5 mph 81% 0.00 in 74.0 W/m2
18:01 37.4 °F 32.1 °F 30.22 in NNE 5.8 mph 5.8 mph 81% 0.00 in 72.0 W/m2
18:02 37.4 °F 32.1 °F 30.22 in North 5.8 mph 5.8 mph 81% 0.00 in 70.0 W/m2
18:03 37.4 °F 32.1 °F 30.22 in North 5.8 mph 5.8 mph 81% 0.00 in 69.0 W/m2
18:04 37.4 °F 32.1 °F 30.22 in North 5.8 mph 5.8 mph 81% 0.00 in 67.0 W/m2
18:05 37.4 °F 32.1 °F 30.22 in North 4.6 mph 4.6 mph 81% 0.00 in 65.0 W/m2
18:07 37.4 °F 32.1 °F 30.22 in NNE 2.3 mph 2.3 mph 81% 0.00 in 65.0 W/m2
18:09 37.4 °F 32.1 °F 30.23 in NNE 5.0 mph 5.0 mph 81% 0.00 in 65.0 W/m2
18:11 37.4 °F 31.8 °F 30.22 in NNE 5.8 mph 5.8 mph 80% 0.00 in 63.0 W/m2
18:12 37.4 °F 31.8 °F 30.23 in NNE 5.8 mph 5.8 mph 80% 0.00 in 62.0 W/m2
18:15 37.3 °F 32.0 °F 30.23 in North 5.0 mph 5.0 mph 81% 0.00 in 60.0 W/m2
18:16 37.3 °F 32.0 °F 30.23 in North 4.6 mph 4.6 mph 81% 0.00 in 58.0 W/m2
18:17 37.3 °F 32.0 °F 30.23 in NE 5.0 mph 5.0 mph 81% 0.00 in 56.0 W/m2
18:19 37.3 °F 32.0 °F 30.23 in NNE 4.6 mph 4.6 mph 81% 0.00 in 51.0 W/m2
18:20 37.3 °F 32.0 °F 30.23 in NNE 4.0 mph 4.0 mph 81% 0.00 in 51.0 W/m2
18:21 37.3 °F 32.0 °F 30.23 in North 3.5 mph 3.5 mph 81% 0.00 in 51.0 W/m2
18:23 37.4 °F 32.4 °F 30.23 in North 4.6 mph 4.6 mph 82% 0.00 in 47.0 W/m2
18:24 37.4 °F 32.4 °F 30.23 in North 4.6 mph 4.6 mph 82% 0.00 in 47.0 W/m2
18:25 37.4 °F 32.4 °F 30.23 in North 3.5 mph   82% 0.00 in 47.0 W/m2
18:26 37.4 °F 32.4 °F 30.23 in North 3.0 mph 3.0 mph 82% 0.00 in 42.0 W/m2
18:27 37.5 °F 32.5 °F 30.23 in NNW 4.6 mph 4.6 mph 82% 0.00 in 40.0 W/m2
18:28 37.4 °F 32.4 °F 30.23 in North 4.6 mph 4.6 mph 82% 0.00 in 39.0 W/m2
18:29 37.4 °F 32.4 °F 30.23 in NNW 4.0 mph 4.0 mph 82% 0.00 in 37.0 W/m2
18:30 37.4 °F 32.7 °F 30.23 in North 4.6 mph 4.6 mph 83% 0.00 in 35.0 W/m2
18:31 37.4 °F 32.7 °F 30.23 in North 3.5 mph 3.5 mph 83% 0.00 in 33.0 W/m2
18:33 37.3 °F 32.3 °F 30.23 in North 6.9 mph 6.9 mph 82% 0.00 in 30.0 W/m2
18:34 37.3 °F 32.3 °F 30.23 in NNE 5.8 mph 5.8 mph 82% 0.00 in 26.0 W/m2
18:35 37.3 °F 32.6 °F 30.23 in NNE 7.0 mph 7.0 mph 83% 0.00 in 26.0 W/m2
18:36 37.2 °F 32.5 °F 30.23 in NE 6.9 mph 6.9 mph 83% 0.00 in 25.0 W/m2
18:37 37.2 °F 32.5 °F 30.23 in NNE 5.8 mph 5.8 mph 83% 0.00 in 26.0 W/m2
18:38 37.1 °F 32.7 °F 30.23 in NNE 5.8 mph 5.8 mph 84% 0.00 in 28.0 W/m2
18:39 37.1 °F 32.7 °F 30.23 in NE 6.0 mph 6.0 mph 84% 0.00 in 30.0 W/m2
18:40 37.1 °F 32.7 °F 30.23 in NNE 5.8 mph 5.8 mph 84% 0.00 in 32.0 W/m2
18:43 37.0 °F 32.9 °F 30.23 in NNE 6.9 mph 6.9 mph 85% 0.00 in 30.0 W/m2
18:44 36.9 °F 32.8 °F 30.23 in NNE 6.9 mph 6.9 mph 85% 0.00 in 28.0 W/m2
18:46 36.9 °F 32.8 °F 30.23 in NNE 6.0 mph 6.0 mph 85% 0.00 in 28.0 W/m2
18:47 36.8 °F 32.7 °F 30.23 in NNE 6.0 mph 6.0 mph 85% 0.00 in 26.0 W/m2
18:48 36.7 °F 32.9 °F 30.23 in NNE 5.8 mph 5.8 mph 86% 0.00 in 25.0 W/m2
18:49 36.7 °F 32.9 °F 30.23 in NNE 6.9 mph 6.9 mph 86% 0.00 in 25.0 W/m2
18:50 36.6 °F 32.8 °F 30.23 in NNE 4.6 mph 4.6 mph 86% 0.00 in 23.0 W/m2
18:51 36.6 °F 32.8 °F 30.23 in NNE 6.9 mph 6.9 mph 86% 0.00 in 21.0 W/m2
18:52 36.5 °F 32.7 °F 30.24 in NE 6.9 mph 6.9 mph 86% 0.00 in 21.0 W/m2
18:54 36.4 °F 32.6 °F 30.24 in NNE 6.0 mph 6.0 mph 86% 0.00 in 18.0 W/m2
18:55 36.4 °F 32.6 °F 30.24 in NE 6.9 mph 6.9 mph 86% 0.00 in 16.0 W/m2
18:56 36.2 °F 32.4 °F 30.24 in NE 6.0 mph 6.0 mph 86% 0.00 in 16.0 W/m2
18:57 36.2 °F 32.7 °F 30.24 in NNE 6.9 mph 6.9 mph 87% 0.00 in 12.0 W/m2
18:58 36.2 °F 32.7 °F 30.24 in NE 6.9 mph 6.9 mph 87% 0.00 in 12.0 W/m2
18:59 36.1 °F 32.6 °F 30.24 in NNE 6.0 mph 6.0 mph 87% 0.00 in 11.0 W/m2
19:01 36.0 °F 32.5 °F 30.24 in NNE 5.8 mph 5.8 mph 87% 0.00 in 11.0 W/m2
19:02 36.0 °F 32.5 °F 30.24 in NNE 5.0 mph 5.0 mph 87% 0.00 in 9.0 W/m2
19:03 35.9 °F 32.4 °F 30.24 in North 6.9 mph 6.9 mph 87% 0.00 in 9.0 W/m2
19:04 35.8 °F 32.0 °F 30.24 in NNE 6.9 mph 6.9 mph 86% 0.00 in 7.0 W/m2
19:05 35.8 °F 32.0 °F 30.24 in North 5.8 mph 5.8 mph 86% 0.00 in 7.0 W/m2
19:06 35.8 °F 32.3 °F 30.24 in NNE 5.0 mph 5.0 mph 87% 0.00 in 7.0 W/m2
19:07 35.7 °F 32.2 °F 30.24 in NNE 4.6 mph 4.6 mph 87% 0.00 in 5.0 W/m2
19:08 35.7 °F 32.2 °F 30.24 in NNE 5.8 mph 5.8 mph 87% 0.00 in 5.0 W/m2
19:09 35.7 °F 32.2 °F 30.24 in NNE 4.6 mph 4.6 mph 87% 0.00 in 5.0 W/m2
19:10 35.7 °F 32.2 °F 30.24 in NNE 4.6 mph 4.6 mph 87% 0.00 in 5.0 W/m2
19:11 35.7 °F 32.2 °F 30.24 in NNE 3.5 mph 3.5 mph 87% 0.00 in 5.0 W/m2
19:13 35.6 °F 32.1 °F 30.24 in North 4.6 mph 4.6 mph 87% 0.00 in 0.0 W/m2
19:14 35.6 °F 32.1 °F 30.24 in Calm     87% 0.00 in 0.0 W/m2
19:15 35.6 °F 32.1 °F 30.24 in Calm     87% 0.00 in 0.0 W/m2
19:16 35.6 °F 32.1 °F 30.24 in Calm     87% 0.00 in 0.0 W/m2
19:17 35.6 °F 32.1 °F 30.24 in Calm     87% 0.00 in 0.0 W/m2
19:19 35.6 °F 32.1 °F 30.24 in Calm     87% 0.00 in 0.0 W/m2
19:21 35.6 °F 32.4 °F 30.24 in North 2.0 mph 2.0 mph 88% 0.00 in 0.0 W/m2
19:22 35.5 °F 32.3 °F 30.24 in Calm   1.5 mph 88% 0.00 in 0.0 W/m2
19:23 35.5 °F 32.3 °F 30.24 in NE 4.0 mph 4.0 mph 88% 0.00 in 0.0 W/m2
19:24 35.5 °F 32.3 °F 30.24 in NNE 3.5 mph 3.5 mph 88% 0.00 in 0.0 W/m2
19:25 35.5 °F 32.3 °F 30.24 in NE 3.5 mph 3.5 mph 88% 0.00 in 0.0 W/m2
19:26 35.5 °F 32.3 °F 30.24 in NNE 3.5 mph 3.5 mph 88% 0.00 in 0.0 W/m2
19:27 35.5 °F 32.3 °F 30.25 in NNE 4.6 mph 4.6 mph 88% 0.00 in 0.0 W/m2
19:30 35.5 °F 32.3 °F 30.25 in Calm     88% 0.00 in 0.0 W/m2
19:31 35.4 °F 32.2 °F 30.25 in Calm     88% 0.00 in 0.0 W/m2
19:32 35.4 °F 32.2 °F 30.25 in NNE 4.0 mph 4.0 mph 88% 0.00 in 0.0 W/m2
19:35 35.3 °F 32.4 °F 30.25 in NE 3.5 mph   89% 0.00 in 0.0 W/m2
19:36 35.3 °F 32.4 °F 30.25 in Calm     89% 0.00 in 0.0 W/m2
19:37 35.3 °F 32.4 °F 30.25 in Calm     89% 0.00 in 0.0 W/m2
19:39 35.2 °F 32.3 °F 30.25 in Calm     89% 0.00 in 0.0 W/m2
19:40 35.3 °F 32.4 °F 30.25 in Calm     89% 0.00 in 0.0 W/m2
19:41 35.2 °F 32.3 °F 30.25 in NE 3.5 mph 3.5 mph 89% 0.00 in 0.0 W/m2
19:42 35.2 °F 32.3 °F 30.25 in NE 3.5 mph 3.5 mph 89% 0.00 in 0.0 W/m2
19:43 35.1 °F 32.2 °F 30.25 in NE 2.3 mph   89% 0.00 in 0.0 W/m2
19:45 35.1 °F 32.2 °F 30.25 in Calm     89% 0.00 in 0.0 W/m2
19:46 35.1 °F 32.2 °F 30.25 in Calm     89% 0.00 in 0.0 W/m2
19:48 35.0 °F 32.1 °F 30.25 in Calm     89% 0.00 in 0.0 W/m2
19:50 35.0 °F 32.1 °F 30.25 in Calm     89% 0.00 in 0.0 W/m2
19:52 34.9 °F 32.0 °F 30.25 in Calm     89% 0.00 in 0.0 W/m2
19:53 34.9 °F 32.0 °F 30.25 in Calm     89% 0.00 in 0.0 W/m2
19:54 34.9 °F 32.0 °F 30.25 in Calm     89% 0.00 in 0.0 W/m2
19:55 34.9 °F 32.0 °F 30.25 in Calm     89% 0.00 in 0.0 W/m2
19:56 34.9 °F 32.0 °F 30.25 in Calm     89% 0.00 in 0.0 W/m2
19:58 34.9 °F 32.0 °F 30.25 in Calm     89% 0.00 in 0.0 W/m2
19:59 34.9 °F 32.0 °F 30.25 in Calm     89% 0.00 in 0.0 W/m2
20:02 34.9 °F 32.0 °F 30.25 in Calm     89% 0.00 in 0.0 W/m2
20:03 34.9 °F 32.0 °F 30.25 in Calm     89% 0.00 in 0.0 W/m2
20:04 34.9 °F 32.0 °F 30.26 in Calm     89% 0.00 in 0.0 W/m2
20:05 34.9 °F 32.0 °F 30.26 in Calm     89% 0.00 in 0.0 W/m2
20:08 35.0 °F 32.1 °F 30.26 in Calm     89% 0.00 in 0.0 W/m2
20:10 35.0 °F 32.1 °F 30.26 in Calm     89% 0.00 in 0.0 W/m2
20:11 35.0 °F 32.1 °F 30.26 in Calm     89% 0.00 in 0.0 W/m2
20:12 35.0 °F 32.1 °F 30.26 in Calm     89% 0.00 in 0.0 W/m2
20:15 35.0 °F 32.1 °F 30.26 in Calm     89% 0.00 in 0.0 W/m2
20:16 35.0 °F 32.1 °F 30.26 in Calm     89% 0.00 in 0.0 W/m2
20:17 35.1 °F 32.2 °F 30.26 in Calm     89% 0.00 in 0.0 W/m2
20:18 35.1 °F 32.2 °F 30.26 in Calm     89% 0.00 in 0.0 W/m2
20:19 35.1 °F 32.2 °F 30.27 in Calm     89% 0.00 in 0.0 W/m2
20:20 35.1 °F 32.2 °F 30.27 in Calm     89% 0.00 in 0.0 W/m2
20:21 35.1 °F 32.2 °F 30.27 in Calm     89% 0.00 in 0.0 W/m2
20:23 35.1 °F 32.2 °F 30.27 in Calm     89% 0.00 in 0.0 W/m2
20:26 35.2 °F 32.3 °F 30.27 in Calm     89% 0.00 in 0.0 W/m2
20:29 35.2 °F 32.3 °F 30.27 in Calm     89% 0.00 in 0.0 W/m2
20:30 35.3 °F 32.4 °F 30.27 in Calm     89% 0.00 in 0.0 W/m2
20:31 35.3 °F 32.4 °F 30.27 in Calm     89% 0.00 in 0.0 W/m2
20:34 35.3 °F 32.4 °F 30.27 in Calm     89% 0.00 in 0.0 W/m2
20:35 35.3 °F 32.4 °F 30.27 in Calm     89% 0.00 in 0.0 W/m2
20:36 35.3 °F 32.4 °F 30.27 in Calm     89% 0.00 in 0.0 W/m2
20:37 35.3 °F 32.4 °F 30.27 in Calm     89% 0.00 in 0.0 W/m2
20:38 35.3 °F 32.4 °F 30.27 in Calm     89% 0.00 in 0.0 W/m2
20:39 35.4 °F 32.5 °F 30.27 in Calm     89% 0.00 in 0.0 W/m2
20:41 35.4 °F 32.5 °F 30.28 in Calm     89% 0.00 in 0.0 W/m2
20:43 35.5 °F 32.6 °F 30.28 in Calm     89% 0.00 in 0.0 W/m2
20:44 35.5 °F 32.6 °F 30.28 in Calm     89% 0.00 in 0.0 W/m2
20:45 35.5 °F 32.6 °F 30.28 in Calm     89% 0.00 in 0.0 W/m2
20:46 35.6 °F 32.7 °F 30.28 in Calm     89% 0.00 in 0.0 W/m2
20:48 35.6 °F 32.7 °F 30.28 in Calm     89% 0.00 in 0.0 W/m2
20:49 35.6 °F 32.7 °F 30.28 in Calm     89% 0.00 in 0.0 W/m2
20:50 35.6 °F 32.4 °F 30.28 in Calm     88% 0.00 in 0.0 W/m2
20:51 35.6 °F 32.4 °F 30.28 in Calm     88% 0.00 in 0.0 W/m2
20:53 35.6 °F 32.7 °F 30.28 in Calm     89% 0.00 in 0.0 W/m2
20:54 35.6 °F 32.4 °F 30.28 in Calm     88% 0.00 in 0.0 W/m2
20:55 35.5 °F 32.3 °F 30.28 in Calm     88% 0.00 in 0.0 W/m2
20:56 35.5 °F 32.3 °F 30.28 in Calm     88% 0.00 in 0.0 W/m2
20:57 35.5 °F 32.3 °F 30.28 in Calm     88% 0.00 in 0.0 W/m2
20:58 35.5 °F 32.3 °F 30.28 in Calm     88% 0.00 in 0.0 W/m2
21:01 35.5 °F 32.3 °F 30.29 in Calm     88% 0.00 in 0.0 W/m2
21:02 35.5 °F 32.3 °F 30.28 in Calm     88% 0.00 in 0.0 W/m2
21:03 35.5 °F 32.3 °F 30.29 in Calm     88% 0.00 in 0.0 W/m2
21:04 35.5 °F 32.6 °F 30.29 in Calm     89% 0.00 in 0.0 W/m2
21:07 35.6 °F 32.4 °F 30.29 in Calm     88% 0.00 in 0.0 W/m2
21:08 35.5 °F 32.3 °F 30.29 in Calm     88% 0.00 in 0.0 W/m2
21:09 35.6 °F 32.4 °F 30.29 in Calm     88% 0.00 in 0.0 W/m2
21:11 35.5 °F 32.3 °F 30.29 in Calm     88% 0.00 in 0.0 W/m2
21:12 35.5 °F 32.3 °F 30.29 in Calm     88% 0.00 in 0.0 W/m2
21:13 35.5 °F 32.3 °F 30.29 in Calm     88% 0.00 in 0.0 W/m2
21:14 35.5 °F 32.3 °F 30.29 in Calm     88% 0.00 in 0.0 W/m2
21:16 35.5 °F 32.3 °F 30.29 in Calm     88% 0.00 in 0.0 W/m2
21:17 35.5 °F 32.3 °F 30.29 in Calm     88% 0.00 in 0.0 W/m2
21:18 35.4 °F 32.2 °F 30.29 in Calm     88% 0.00 in 0.0 W/m2
21:19 35.4 °F 32.2 °F 30.29 in Calm     88% 0.00 in 0.0 W/m2
21:20 35.3 °F 32.1 °F 30.29 in Calm     88% 0.00 in 0.0 W/m2
21:21 35.3 °F 32.1 °F 30.29 in Calm     88% 0.00 in 0.0 W/m2
21:22 35.3 °F 32.1 °F 30.29 in Calm     88% 0.00 in 0.0 W/m2
21:23 35.2 °F 32.3 °F 30.29 in Calm     89% 0.00 in 0.0 W/m2
21:24 35.2 °F 32.3 °F 30.29 in Calm     89% 0.00 in 0.0 W/m2
21:26 35.2 °F 32.3 °F 30.29 in Calm     89% 0.00 in 0.0 W/m2
21:28 35.1 °F 32.2 °F 30.30 in Calm     89% 0.00 in 0.0 W/m2
21:29 35.1 °F 32.2 °F 30.30 in Calm     89% 0.00 in 0.0 W/m2
21:30 35.1 °F 32.2 °F 30.29 in Calm     89% 0.00 in 0.0 W/m2
21:32 35.0 °F 32.1 °F 30.30 in Calm     89% 0.00 in 0.0 W/m2
21:34 35.0 °F 32.1 °F 30.30 in Calm     89% 0.00 in 0.0 W/m2
21:35 35.0 °F 32.1 °F 30.30 in Calm     89% 0.00 in 0.0 W/m2
21:36 34.9 °F 32.0 °F 30.30 in Calm     89% 0.00 in 0.0 W/m2
21:37 34.9 °F 32.0 °F 30.30 in Calm     89% 0.00 in 0.0 W/m2
21:40 34.8 °F 31.9 °F 30.30 in Calm     89% 0.00 in 0.0 W/m2
21:41 34.8 °F 31.9 °F 30.30 in Calm     89% 0.00 in 0.0 W/m2
21:42 34.8 °F 31.9 °F 30.30 in Calm     89% 0.00 in 0.0 W/m2
21:43 34.8 °F 31.9 °F 30.30 in Calm     89% 0.00 in 0.0 W/m2
21:44 34.8 °F 31.9 °F 30.30 in Calm     89% 0.00 in 0.0 W/m2
21:45 34.7 °F 31.8 °F 30.30 in Calm     89% 0.00 in 0.0 W/m2
21:46 34.7 °F 31.8 °F 30.30 in Calm     89% 0.00 in 0.0 W/m2
21:48 34.7 °F 31.8 °F 30.30 in Calm     89% 0.00 in 0.0 W/m2
21:50 34.7 °F 31.8 °F 30.30 in Calm     89% 0.00 in 0.0 W/m2
21:51 34.6 °F 31.7 °F 30.30 in Calm     89% 0.00 in 0.0 W/m2
21:52 34.6 °F 31.7 °F 30.30 in Calm     89% 0.00 in 0.0 W/m2
21:53 34.6 °F 31.7 °F 30.30 in Calm     89% 0.00 in 0.0 W/m2
21:54 34.5 °F 31.6 °F 30.30 in Calm     89% 0.00 in 0.0 W/m2
21:55 34.5 °F 31.6 °F 30.30 in Calm     89% 0.00 in 0.0 W/m2
21:56 34.4 °F 31.5 °F 30.30 in Calm     89% 0.00 in 0.0 W/m2
21:57 34.4 °F 31.5 °F 30.30 in Calm     89% 0.00 in 0.0 W/m2
21:59 34.4 °F 31.5 °F 30.30 in Calm     89% 0.00 in 0.0 W/m2
22:04 34.2 °F 31.3 °F 30.30 in Calm     89% 0.00 in 0.0 W/m2
22:05 34.2 °F 31.3 °F 30.30 in Calm     89% 0.00 in 0.0 W/m2
22:06 34.2 °F 31.3 °F 30.30 in Calm     89% 0.00 in 0.0 W/m2
22:07 34.1 °F 31.2 °F 30.30 in Calm     89% 0.00 in 0.0 W/m2
22:08 34.1 °F 31.2 °F 30.30 in Calm     89% 0.00 in 0.0 W/m2
22:09 34.1 °F 31.2 °F 30.30 in Calm     89% 0.00 in 0.0 W/m2
22:11 34.1 °F 31.2 °F 30.30 in Calm     89% 0.00 in 0.0 W/m2
22:12 34.1 °F 31.2 °F 30.30 in Calm     89% 0.00 in 0.0 W/m2
22:13 34.1 °F 31.2 °F 30.30 in Calm     89% 0.00 in 0.0 W/m2
22:15 34.0 °F 31.1 °F 30.30 in Calm     89% 0.00 in 0.0 W/m2
22:16 34.0 °F 31.1 °F 30.30 in Calm     89% 0.00 in 0.0 W/m2
22:17 34.0 °F 31.1 °F 30.30 in Calm     89% 0.00 in 0.0 W/m2
22:18 34.0 °F 31.1 °F 30.30 in Calm     89% 0.00 in 0.0 W/m2
22:19 34.0 °F 31.1 °F 30.30 in Calm     89% 0.00 in 0.0 W/m2
22:20 34.0 °F 31.4 °F 30.30 in Calm     90% 0.00 in 0.0 W/m2
22:23 34.0 °F 31.4 °F 30.30 in Calm     90% 0.00 in 0.0 W/m2
22:24 34.0 °F 31.4 °F 30.30 in Calm     90% 0.00 in 0.0 W/m2
22:25 34.0 °F 31.4 °F 30.30 in Calm     90% 0.00 in 0.0 W/m2
22:27 34.0 °F 31.4 °F 30.30 in Calm     90% 0.00 in 0.0 W/m2
22:29 34.0 °F 31.4 °F 30.30 in Calm     90% 0.00 in 0.0 W/m2
22:30 34.0 °F 31.4 °F 30.30 in Calm     90% 0.00 in 0.0 W/m2
22:31 34.0 °F 31.4 °F 30.30 in Calm     90% 0.00 in 0.0 W/m2
22:33 34.0 °F 31.4 °F 30.30 in Calm     90% 0.00 in 0.0 W/m2
22:34 34.0 °F 31.4 °F 30.30 in Calm     90% 0.00 in 0.0 W/m2
22:35 33.9 °F 31.3 °F 30.30 in Calm     90% 0.00 in 0.0 W/m2
22:36 34.0 °F 31.4 °F 30.30 in Calm     90% 0.00 in 0.0 W/m2
22:37 34.0 °F 31.4 °F 30.30 in Calm     90% 0.00 in 0.0 W/m2
22:38 34.0 °F 31.4 °F 30.30 in Calm     90% 0.00 in 0.0 W/m2
22:39 33.9 °F 31.3 °F 30.30 in Calm     90% 0.00 in 0.0 W/m2
22:40 34.0 °F 31.4 °F 30.30 in Calm     90% 0.00 in 0.0 W/m2
22:42 34.0 °F 31.4 °F 30.30 in Calm     90% 0.00 in 0.0 W/m2
22:43 34.0 °F 31.4 °F 30.30 in Calm     90% 0.00 in 0.0 W/m2
22:44 34.1 °F 31.5 °F 30.30 in Calm     90% 0.00 in 0.0 W/m2
22:46 34.1 °F 31.2 °F 30.30 in Calm     89% 0.00 in 0.0 W/m2
22:47 34.1 °F 31.2 °F 30.30 in Calm     89% 0.00 in 0.0 W/m2
22:48 34.1 °F 31.2 °F 30.30 in Calm     89% 0.00 in 0.0 W/m2
22:49 34.1 °F 31.2 °F 30.30 in Calm     89% 0.00 in 0.0 W/m2
22:50 34.0 °F 31.1 °F 30.30 in Calm     89% 0.00 in 0.0 W/m2
22:51 34.0 °F 31.1 °F 30.30 in Calm     89% 0.00 in 0.0 W/m2
22:52 34.0 °F 31.1 °F 30.30 in Calm     89% 0.00 in 0.0 W/m2
22:53 34.0 °F 31.1 °F 30.30 in Calm     89% 0.00 in 0.0 W/m2
22:54 34.0 °F 31.1 °F 30.30 in Calm     89% 0.00 in 0.0 W/m2
22:55 34.0 °F 31.1 °F 30.30 in Calm     89% 0.00 in 0.0 W/m2
22:57 34.0 °F 31.1 °F 30.30 in Calm     89% 0.00 in 0.0 W/m2
22:58 34.0 °F 31.1 °F 30.30 in Calm     89% 0.00 in 0.0 W/m2
22:59 34.0 °F 31.1 °F 30.30 in Calm     89% 0.00 in 0.0 W/m2
23:00 34.0 °F 31.1 °F 30.30 in Calm     89% 0.00 in 0.0 W/m2
23:01 34.0 °F 31.1 °F 30.30 in Calm     89% 0.00 in 0.0 W/m2
23:02 34.0 °F 31.1 °F 30.30 in Calm     89% 0.00 in 0.0 W/m2
23:06 34.0 °F 30.8 °F 30.30 in Calm     88% 0.00 in 0.0 W/m2
23:09 33.9 °F 30.7 °F 30.30 in Calm     88% 0.00 in 0.0 W/m2
23:10 33.9 °F 30.7 °F 30.30 in Calm     88% 0.00 in 0.0 W/m2
23:11 33.9 °F 30.7 °F 30.30 in Calm     88% 0.00 in 0.0 W/m2
23:12 33.8 °F 30.6 °F 30.30 in Calm     88% 0.00 in 0.0 W/m2
23:14 33.8 °F 30.6 °F 30.30 in Calm     88% 0.00 in 0.0 W/m2
23:15 33.8 °F 30.6 °F 30.30 in Calm     88% 0.00 in 0.0 W/m2
23:16 33.8 °F 30.6 °F 30.30 in Calm     88% 0.00 in 0.0 W/m2
23:17 33.8 °F 30.6 °F 30.30 in Calm     88% 0.00 in 0.0 W/m2
23:18 33.7 °F 30.5 °F 30.30 in Calm     88% 0.00 in 0.0 W/m2
23:19 33.7 °F 30.5 °F 30.30 in Calm     88% 0.00 in 0.0 W/m2
23:20 33.7 °F 30.5 °F 30.30 in Calm     88% 0.00 in 0.0 W/m2
23:21 33.7 °F 30.5 °F 30.30 in Calm     88% 0.00 in 0.0 W/m2
23:22 33.6 °F 30.4 °F 30.30 in Calm     88% 0.00 in 0.0 W/m2
23:23 33.6 °F 30.4 °F 30.30 in Calm     88% 0.00 in 0.0 W/m2
23:24 33.5 °F 30.3 °F 30.30 in Calm     88% 0.00 in 0.0 W/m2
23:26 33.5 °F 30.3 °F 30.30 in Calm     88% 0.00 in 0.0 W/m2
23:28 33.4 °F 30.2 °F 30.30 in Calm     88% 0.00 in 0.0 W/m2
23:30 33.4 °F 30.5 °F 30.30 in Calm     89% 0.00 in 0.0 W/m2
23:31 33.4 °F 30.5 °F 30.30 in Calm     89% 0.00 in 0.0 W/m2
23:32 33.3 °F 30.4 °F 30.30 in Calm     89% 0.00 in 0.0 W/m2
23:33 33.3 °F 30.4 °F 30.30 in Calm     89% 0.00 in 0.0 W/m2
23:34 33.2 °F 30.3 °F 30.30 in Calm     89% 0.00 in 0.0 W/m2
23:35 33.2 °F 30.3 °F 30.30 in Calm     89% 0.00 in 0.0 W/m2
23:36 33.2 °F 30.3 °F 30.30 in Calm     89% 0.00 in 0.0 W/m2
23:39 33.1 °F 30.2 °F 30.30 in Calm     89% 0.00 in 0.0 W/m2
23:41 33.0 °F 30.1 °F 30.30 in Calm     89% 0.00 in 0.0 W/m2
23:42 33.0 °F 30.1 °F 30.30 in Calm     89% 0.00 in 0.0 W/m2
23:43 33.0 °F 30.1 °F 30.30 in Calm     89% 0.00 in 0.0 W/m2
23:44 33.0 °F 30.1 °F 30.30 in Calm     89% 0.00 in 0.0 W/m2
23:45 33.0 °F 30.1 °F 30.30 in Calm     89% 0.00 in 0.0 W/m2
23:47 33.0 °F 30.1 °F 30.30 in Calm     89% 0.00 in 0.0 W/m2
23:48 33.0 °F 30.1 °F 30.30 in Calm     89% 0.00 in 0.0 W/m2
23:49 33.0 °F 30.1 °F 30.30 in Calm     89% 0.00 in 0.0 W/m2
23:50 33.0 °F 30.1 °F 30.30 in Calm     89% 0.00 in 0.0 W/m2
23:51 33.0 °F 30.1 °F 30.30 in Calm     89% 0.00 in 0.0 W/m2
23:52 33.0 °F 30.1 °F 30.30 in Calm     89% 0.00 in 0.0 W/m2
23:53 33.0 °F 30.1 °F 30.30 in Calm     89% 0.00 in 0.0 W/m2
23:54 33.0 °F 30.1 °F 30.30 in Calm     89% 0.00 in 0.0 W/m2
23:55 33.0 °F 30.1 °F 30.30 in Calm     89% 0.00 in 0.0 W/m2
23:56 33.0 °F 30.1 °F 30.30 in Calm     89% 0.00 in 0.0 W/m2
23:58 33.0 °F 30.1 °F 30.30 in Calm     89% 0.00 in 0.0 W/m2
Bourbonnais, Illinois, USA
Compliments of Weather Underground - 4 mb